User: anonymous   Login
Location: Bothwell
(42.3833°S, 147.0000°E)
Time: 05:13:48
(UTC+10:00)
Language:

NANOSAT C BR1 - Orbit

View from above orbital plane
View from above orbital plane
View from above satellite
View from above satellite

Ground track
Ground track

The orbit data is extracted from the following two-line orbital elements,

1 40024U 14033Q   22267.53914203  .00003844  00000-0  38266-3 0  9994
2 40024  97.9920 212.4482 0013550  81.5434 278.7320 14.92173946448753
Epoch (UTC): 24 September 2022 12:56:21
Eccentricity: 0.0013550
inclination: 97.9920°
perigee height: 582 km
apogee height: 600 km
right ascension of ascending node: 212.4482°
argument of perigee: 81.5434°
revolutions per day: 14.92173946
mean anomaly at epoch: 278.7320°
orbit number at epoch: 44875

The dashed part of the orbit path shows where the satellite is in the earth's shadow,  

DLR